Lid_Strength_Index
13 11 12 12 11 11 14 14 14 13 13 11 10 9 9 7 7 7 7 6 6 6 5 4 4 3 3 2 2 2 3 3 3 2 1 1 1 1 1 1 1 1 1 1
14 10 10 11 9 9 10 10 11 11 13 9 8 8 9 8 7 7 7 6 5 5 5 5 4 4 3 2 3 2 3 3 3 3 2 1 1 1 1 1 2 2 1 1
15 11 11 13 11 10 10 9 11 13 10 9 9 8 9 8 7 7 7 6 5 5 5 4 4 3 3 3 2 2 2 2 2 3 3 1 2 2 2 2 2 1 2 4
15 14 17 11 9 8 9 9 9 9 9 9 9 9 8 8 7 7 6 6 5 4 4 4 3 3 2 2 2 2 2 2 2 2 2 1 2 2 3 3 3 3 3 6
16 16 13 11 9 10 11 11 9 10 9 8 8 8 9 6 5 5 5 4 4 3 3 3 3 2 3 2 3 3 3 3 3 2 2 2 3 3 3 3 3 3 5 7
15 16 17 11 8 6 8 14 8 8 9 9 8 12 10 6 5 4 4 4 4 3 3 4 4 3 3 3 3 3 3 3 2 1 2 3 3 4 4 5 6 7 7 8
15 16 12 9 7 6 14 12 8 7 8 8 9 8 7 5 5 4 4 5 3 4 5 4 5 3 3 3 3 3 2 2 1 1 3 4 5 5 6 7 8 8 9 9
14 16 17 7 8 12 9 8 7 7 7 8 7 6 6 5 5 4 5 5 5 5 5 5 4 3 4 4 3 3 3 3 4 3 3 4 5 6 6 7 8 8 9 9
12 12 9 7 8 7 6 7 7 7 6 6 6 6 5 5 5 5 5 5 5 5 5 5 5 4 4 4 3 3 4 4 5 4 5 5 6 6 6 7 7 8 8 8
10 9 8 7 6 6 6 6 5 5 5 5 6 5 5 5 5 5 6 6 6 5 7 6 5 5 4 4 3 3 3 4 5 5 5 4 5 5 6 6 7 7 7 8
10 9 8 7 6 6 6 5 5 5 5 5 5 5 5 5 4 5 5 5 6 6 7 6 5 5 4 4 3 4 4 5 5 5 6 9 11 8 8 9 6 5 6 6
11 8 8 8 6 5 6 6 5 5 5 4 4 5 4 4 4 5 6 7 6 6 6 6 5 5 5 4 4 4 4 4 4 5 5 6 8 10 12 12 11 10 8 7
8 6 6 6 5 4 5 5 4 5 4 5 4 4 4 5 5 6 6 6 7 6 5 5 6 6 5 5 5 5 6 6 6 6 5 6 6 7 8 11 12 12 12 11
5 5 7 6 6 5 4 4 4 4 4 4 4 4 5 6 6 5 6 5 4 4 4 5 5 5 5 6 6 7 7 8 7 7 8 8 8 8 9 10 10 10 11 10
5 5 5 5 5 5 4 4 5 5 4 5 5 6 5 4 4 4 3 3 3 3 3 2 3 2 3 4 4 5 5 5 5 5 5 6 6 7 7 7 7 8 9 9
5 5 5 5 5 5 5 5 5 5 4 4 4 4 4 4 4 4 4 3 4 4 4 3 4 4 2 2 3 3 3 2 2 3 3 3 3 4 4 4 5 6 7 7
7 7 6 6 6 5 5 4 4 4 4 4 4 3 3 4 4 4 4 3 3 3 4 4 4 5 6 5 4 5 6 5 4 4 3 3 3 3 3 3 3 3 4 5
5 5 4 4 5 5 4 4 4 4 4 3 3 3 4 4 4 4 4 4 4 4 4 4 5 6 6 7 5 5 4 4 4 4 5 5 6 6 5 5 4 4 4 6
4 4 5 5 4 4 4 4 4 3 3 3 3 4 3 3 4 3 3 4 5 6 6 5 1 3 5 6 6 6 5 5 5 6 6 5 5 6 6 5 5 5 5 5
4 4 4 4 3 4 4 3 3 4 3 3 4 4 4 4 3 3 4 5 5 5 5 5 5 4 4 5 4 6 5 5 5 6 6 6 6 7 6 6 5 5 5 5
4 4 4 4 4 4 3 3 3 4 3 3 3 4 4 3 3 4 6 6 5 3 6 4 4 4 5 5 6 6 5 5 6 6 5 6 6 6 6 6 6 5 5 6
4 4 4 4 4 4 3 3 3 3 3 3 3 3 3 3 4 5 6 5 5 5 7 6 4 3 4 3 6 6 5 5 5 5 6 6 6 6 6 6 6 6 6 6
5 5 5 5 4 4 3 3 3 3 3 3 3 3 3 3 3 5 6 5 5 5 6 6 4 2 2 6 5 6 5 5 5 6 6 6 6 7 6 6 6 6 6 6
5 5 4 4 4 4 4 4 3 3 3 3 2 2 3 3 5 5 5 5 6 5 6 5 4 3 4 5 5 5 5 5 6 7 6 7 7 7 6 6 6 6 6 6
4 4 4 5 5 4 3 3 3 3 3 3 3 2 2 2 3 3 5 5 6 5 5 4 3 3 5 5 5 5 5 5 6 6 6 7 7 7 7 6 6 6 6 6
4 4 4 4 4 4 3 3 4 3 3 4 3 2 2 2 3 4 5 5 6 6 6 5 5 6 5 5 5 4 5 6 5 5 6 6 6 6 6 7 6 6 6 6
4 5 4 4 4 5 3 3 3 4 3 3 3 2 2 3 3 4 5 6 6 6 7 7 7 6 6 5 4 5 6 6 6 6 6 5 6 6 6 5 6 5 6 6